Wetterdaten: Freitag, 07.08.2015
Datum Zeit Auen-Temp. Temp gefhlt Luftfeuchte Luftdruck Regen Wind Richtung Richtung Taupunkt Windben
07.08.2015 00:00 17,5 C 17,3 C 69 % 1013,4 hPa 0,0 mm 0,0 km/h (0 Bft) SO 135 11,7 C 0,0 km/h (0 Bft)
07.08.2015 00:05 17,4 C 17,2 C 69 % 1013,4 hPa 0,0 mm 0,0 km/h (0 Bft) SO 135 11,7 C 0,0 km/h (0 Bft)
07.08.2015 00:10 17,2 C 17,1 C 69 % 1013,4 hPa 0,0 mm 0,0 km/h (0 Bft) N-NO 22 11,5 C 0,0 km/h (0 Bft)
07.08.2015 00:15 17,0 C 16,9 C 69 % 1013,4 hPa 0,0 mm 0,0 km/h (0 Bft) N-NO 22 11,3 C 0,0 km/h (0 Bft)
07.08.2015 00:20 17,2 C 17,0 C 70 % 1013,4 hPa 0,0 mm 0,0 km/h (0 Bft) O-NO 67 11,7 C 0,0 km/h (0 Bft)
07.08.2015 00:25 17,1 C 16,9 C 70 % 1013,4 hPa 0,0 mm 0,0 km/h (0 Bft) O-NO 67 11,6 C 0,0 km/h (0 Bft)
07.08.2015 00:30 17,0 C 16,8 C 70 % 1013,4 hPa 0,0 mm 0,0 km/h (0 Bft) NO 45 11,5 C 0,0 km/h (0 Bft)
07.08.2015 00:35 16,9 C 16,7 C 70 % 1013,2 hPa 0,0 mm 0,0 km/h (0 Bft) NO 45 11,4 C 0,0 km/h (0 Bft)
07.08.2015 00:40 17,0 C 16,8 C 70 % 1013,2 hPa 0,0 mm 0,0 km/h (0 Bft) SO 135 11,5 C 0,0 km/h (0 Bft)
07.08.2015 00:45 16,8 C 16,7 C 70 % 1013,2 hPa 0,0 mm 0,0 km/h (0 Bft) O-SO 112 11,3 C 0,0 km/h (0 Bft)
07.08.2015 00:50 16,6 C 16,4 C 70 % 1013,2 hPa 0,0 mm 0,0 km/h (0 Bft) NO 45 11,1 C 0,0 km/h (0 Bft)
07.08.2015 00:55 16,4 C 16,3 C 71 % 1013,2 hPa 0,0 mm 0,0 km/h (0 Bft) NO 45 11,1 C 0,0 km/h (0 Bft)
07.08.2015 01:00 16,2 C 16,1 C 71 % 1013,2 hPa 0,0 mm 0,0 km/h (0 Bft) NO 45 10,9 C 0,0 km/h (0 Bft)
07.08.2015 01:05 16,2 C 16,0 C 71 % 1013,2 hPa 0,0 mm 0,0 km/h (0 Bft) NO 45 10,9 C 0,0 km/h (0 Bft)
07.08.2015 01:10 16,3 C 16,1 C 72 % 1013,2 hPa 0,0 mm 0,0 km/h (0 Bft) NO 45 11,2 C 0,0 km/h (0 Bft)
07.08.2015 01:15 16,1 C 15,9 C 72 % 1013,1 hPa 0,0 mm 0,0 km/h (0 Bft) N-NO 22 11,0 C 0,0 km/h (0 Bft)
07.08.2015 01:20 16,2 C 16,0 C 73 % 1013,1 hPa 0,0 mm 0,0 km/h (0 Bft) NO 45 11,4 C 0,0 km/h (0 Bft)
07.08.2015 01:25 16,1 C 15,9 C 73 % 1013,1 hPa 0,0 mm 0,0 km/h (0 Bft) NO 45 11,3 C 0,0 km/h (0 Bft)
07.08.2015 01:30 16,2 C 16,0 C 74 % 1013,1 hPa 0,0 mm 0,0 km/h (0 Bft) O-NO 67 11,6 C 0,0 km/h (0 Bft)
07.08.2015 01:35 16,4 C 16,1 C 73 % 1012,8 hPa 0,0 mm 0,0 km/h (0 Bft) SW 225 11,5 C 0,0 km/h (0 Bft)
07.08.2015 01:40 16,1 C 15,9 C 73 % 1012,8 hPa 0,0 mm 0,0 km/h (0 Bft) N-NO 22 11,3 C 0,0 km/h (0 Bft)
07.08.2015 01:45 16,2 C 16,0 C 73 % 1012,8 hPa 0,0 mm 0,0 km/h (0 Bft) O-NO 67 11,4 C 0,0 km/h (0 Bft)
07.08.2015 01:50 15,9 C 15,8 C 74 % 1012,8 hPa 0,0 mm 0,0 km/h (0 Bft) NO 45 11,3 C 0,0 km/h (0 Bft)
07.08.2015 01:55 15,8 C 15,7 C 74 % 1012,8 hPa 0,0 mm 0,0 km/h (0 Bft) NO 45 11,2 C 0,0 km/h (0 Bft)
07.08.2015 02:00 16,1 C 15,8 C 74 % 1012,8 hPa 0,0 mm 0,0 km/h (0 Bft) O-NO 67 11,5 C 0,0 km/h (0 Bft)
07.08.2015 02:05 16,4 C 16,0 C 74 % 1012,8 hPa 0,0 mm 0,0 km/h (0 Bft) N-NW 337 11,8 C 0,0 km/h (0 Bft)
07.08.2015 02:10 16,2 C 15,9 C 73 % 1012,8 hPa 0,0 mm 0,0 km/h (0 Bft) SO 135 11,4 C 0,0 km/h (0 Bft)
07.08.2015 02:15 16,4 C 16,1 C 74 % 1012,8 hPa 0,0 mm 0,0 km/h (0 Bft) W-SW 247 11,8 C 0,0 km/h (0 Bft)
07.08.2015 02:20 16,0 C 15,8 C 73 % 1012,8 hPa 0,0 mm 0,0 km/h (0 Bft) SW 225 11,2 C 0,0 km/h (0 Bft)
07.08.2015 02:25 15,9 C 15,8 C 75 % 1012,8 hPa 0,0 mm 0,0 km/h (0 Bft) W-NW 292 11,5 C 0,0 km/h (0 Bft)
07.08.2015 02:30 15,8 C 15,6 C 76 % 1012,8 hPa 0,0 mm 0,0 km/h (0 Bft) SW 225 11,6 C 0,0 km/h (0 Bft)
07.08.2015 02:35 15,7 C 15,5 C 76 % 1012,6 hPa 0,0 mm 0,0 km/h (0 Bft) SW 225 11,5 C 0,0 km/h (0 Bft)
07.08.2015 02:40 15,7 C 15,5 C 76 % 1012,6 hPa 0,0 mm 0,0 km/h (0 Bft) O-NO 67 11,5 C 0,0 km/h (0 Bft)
07.08.2015 02:45 15,5 C 15,4 C 76 % 1012,6 hPa 0,0 mm 0,0 km/h (0 Bft) NO 45 11,3 C 0,0 km/h (0 Bft)
07.08.2015 02:50 15,5 C 15,3 C 77 % 1012,6 hPa 0,0 mm 0,0 km/h (0 Bft) O-NO 67 11,5 C 0,0 km/h (0 Bft)
07.08.2015 02:55 16,0 C 15,7 C 77 % 1012,5 hPa 0,0 mm 0,0 km/h (0 Bft) O-NO 67 12,0 C 0,0 km/h (0 Bft)
07.08.2015 03:00 15,5 C 15,3 C 77 % 1012,5 hPa 0,0 mm 0,0 km/h (0 Bft) O-NO 67 11,5 C 0,0 km/h (0 Bft)
07.08.2015 03:05 15,5 C 15,3 C 77 % 1012,5 hPa 0,0 mm 0,0 km/h (0 Bft) S-SO 157 11,5 C 0,0 km/h (0 Bft)
07.08.2015 03:10 15,5 C 15,3 C 77 % 1012,5 hPa 0,0 mm 0,0 km/h (0 Bft) W-SW 247 11,5 C 0,0 km/h (0 Bft)
07.08.2015 03:11 15,3 C 15,1 C 77 % 1012,6 hPa 0,0 mm 0,0 km/h (0 Bft) W 270 11,3 C 0,0 km/h (0 Bft)
07.08.2015 03:13 15,3 C 15,1 C 77 % 1012,6 hPa 0,0 mm 0,0 km/h (0 Bft) W 270 11,3 C 0,0 km/h (0 Bft)
07.08.2015 03:15 15,3 C 15,1 C 77 % 1012,6 hPa 0,0 mm 0,0 km/h (0 Bft) W 270 11,3 C 0,0 km/h (0 Bft)
07.08.2015 03:20 15,2 C 15,1 C 77 % 1012,6 hPa 0,0 mm 0,0 km/h (0 Bft) N-NW 337 11,2 C 0,0 km/h (0 Bft)
07.08.2015 03:25 15,2 C 15,0 C 77 % 1012,6 hPa 0,0 mm 0,0 km/h (0 Bft) N-NW 337 11,2 C 0,0 km/h (0 Bft)
07.08.2015 03:30 14,9 C 14,8 C 78 % 1012,6 hPa 0,0 mm 0,0 km/h (0 Bft) N-NW 337 11,1 C 0,0 km/h (0 Bft)
07.08.2015 03:35 14,8 C 14,7 C 78 % 1012,6 hPa 0,0 mm 0,0 km/h (0 Bft) N-NW 337 11,0 C 0,0 km/h (0 Bft)
07.08.2015 03:40 14,7 C 14,6 C 78 % 1012,6 hPa 0,0 mm 0,0 km/h (0 Bft) O-NO 67 10,9 C 0,0 km/h (0 Bft)
07.08.2015 03:45 14,6 C 14,5 C 78 % 1012,6 hPa 0,0 mm 0,0 km/h (0 Bft) N-NO 22 10,8 C 0,0 km/h (0 Bft)
07.08.2015 03:50 14,6 C 14,5 C 79 % 1012,6 hPa 0,0 mm 0,0 km/h (0 Bft) O-NO 67 11,0 C 0,0 km/h (0 Bft)
07.08.2015 03:55 14,6 C 14,4 C 79 % 1012,4 hPa 0,0 mm 0,0 km/h (0 Bft) NO 45 11,0 C 0,0 km/h (0 Bft)
07.08.2015 04:00 14,6 C 14,4 C 79 % 1012,4 hPa 0,0 mm 0,0 km/h (0 Bft) O-NO 67 11,0 C 0,0 km/h (0 Bft)
07.08.2015 04:05 14,8 C 14,6 C 79 % 1012,4 hPa 0,0 mm 0,0 km/h (0 Bft) O-SO 112 11,2 C 0,0 km/h (0 Bft)
07.08.2015 04:10 15,1 C 14,9 C 79 % 1012,4 hPa 0,0 mm 0,0 km/h (0 Bft) O-NO 67 11,5 C 0,0 km/h (0 Bft)
07.08.2015 04:15 15,3 C 15,1 C 78 % 1012,4 hPa 0,0 mm 0,0 km/h (0 Bft) S-SO 157 11,5 C 0,0 km/h (0 Bft)
07.08.2015 04:20 15,5 C 15,3 C 78 % 1012,4 hPa 0,0 mm 0,0 km/h (0 Bft) NW 315 11,7 C 0,0 km/h (0 Bft)
07.08.2015 04:25 15,4 C 15,3 C 78 % 1012,4 hPa 0,0 mm 0,0 km/h (0 Bft) N 360 11,6 C 0,0 km/h (0 Bft)
07.08.2015 04:30 15,5 C 15,4 C 78 % 1012,4 hPa 0,0 mm 0,0 km/h (0 Bft) W 270 11,7 C 0,0 km/h (0 Bft)
07.08.2015 04:35 15,4 C 15,3 C 78 % 1012,1 hPa 0,0 mm 0,0 km/h (0 Bft) NW 315 11,6 C 0,0 km/h (0 Bft)
07.08.2015 04:40 15,5 C 15,4 C 79 % 1012,1 hPa 0,0 mm 0,0 km/h (0 Bft) NO 45 11,9 C 0,0 km/h (0 Bft)
07.08.2015 04:45 15,3 C 15,2 C 78 % 1012,1 hPa 0,0 mm 0,0 km/h (0 Bft) NO 45 11,5 C 0,0 km/h (0 Bft)
07.08.2015 04:50 15,3 C 15,2 C 79 % 1012,1 hPa 0,0 mm 0,0 km/h (0 Bft) O 90 11,7 C 0,0 km/h (0 Bft)
07.08.2015 04:55 15,4 C 15,3 C 79 % 1011,9 hPa 0,0 mm 0,0 km/h (0 Bft) O-NO 67 11,8 C 0,0 km/h (0 Bft)
07.08.2015 05:00 15,2 C 15,1 C 78 % 1011,9 hPa 0,0 mm 0,0 km/h (0 Bft) NW 315 11,4 C 0,0 km/h (0 Bft)
07.08.2015 05:05 15,1 C 15,0 C 78 % 1011,9 hPa 0,0 mm 0,0 km/h (0 Bft) N-NW 337 11,3 C 0,0 km/h (0 Bft)
07.08.2015 05:10 15,0 C 14,9 C 78 % 1011,9 hPa 0,0 mm 0,0 km/h (0 Bft) N-NO 22 11,2 C 0,0 km/h (0 Bft)
07.08.2015 05:15 14,9 C 14,8 C 79 % 1011,9 hPa 0,0 mm 0,0 km/h (0 Bft) NO 45 11,3 C 0,0 km/h (0 Bft)
07.08.2015 05:20 14,7 C 14,8 C 79 % 1011,9 hPa 0,0 mm 0,0 km/h (0 Bft) NO 45 11,1 C 0,0 km/h (0 Bft)
07.08.2015 05:25 14,8 C 14,7 C 79 % 1011,9 hPa 0,0 mm 0,0 km/h (0 Bft) NO 45 11,2 C 0,0 km/h (0 Bft)
07.08.2015 05:30 14,7 C 14,6 C 79 % 1011,9 hPa 0,0 mm 0,0 km/h (0 Bft) W 270 11,1 C 0,0 km/h (0 Bft)
07.08.2015 05:35 14,6 C 14,5 C 79 % 1011,9 hPa 0,0 mm 0,0 km/h (0 Bft) S 180 11,0 C 0,0 km/h (0 Bft)
07.08.2015 05:40 14,7 C 14,5 C 80 % 1011,9 hPa 0,0 mm 0,0 km/h (0 Bft) O-NO 67 11,3 C 0,0 km/h (0 Bft)
07.08.2015 05:45 14,8 C 14,6 C 80 % 1011,9 hPa 0,0 mm 0,0 km/h (0 Bft) O-NO 67 11,4 C 0,0 km/h (0 Bft)
07.08.2015 05:50 14,6 C 14,5 C 80 % 1011,9 hPa 0,0 mm 0,0 km/h (0 Bft) N 360 11,2 C 0,0 km/h (0 Bft)
07.08.2015 05:55 14,8 C 14,7 C 81 % 1011,8 hPa 0,0 mm 0,0 km/h (0 Bft) O-NO 67 11,6 C 0,0 km/h (0 Bft)
07.08.2015 06:00 15,0 C 14,8 C 80 % 1011,8 hPa 0,0 mm 0,0 km/h (0 Bft) N-NO 22 11,6 C 0,0 km/h (0 Bft)
07.08.2015 06:05 14,8 C 14,8 C 80 % 1011,8 hPa 0,0 mm 0,0 km/h (0 Bft) NO 45 11,4 C 0,0 km/h (0 Bft)
07.08.2015 06:10 14,7 C 14,7 C 80 % 1011,8 hPa 0,0 mm 0,0 km/h (0 Bft) NW 315 11,3 C 0,0 km/h (0 Bft)
07.08.2015 06:15 14,8 C 14,7 C 80 % 1011,9 hPa 0,0 mm 0,0 km/h (0 Bft) W-NW 292 11,4 C 0,0 km/h (0 Bft)
07.08.2015 06:20 15,1 C 15,0 C 81 % 1011,9 hPa 0,0 mm 0,0 km/h (0 Bft) O 90 11,9 C 0,0 km/h (0 Bft)
07.08.2015 06:25 15,1 C 15,1 C 80 % 1011,9 hPa 0,0 mm 0,0 km/h (0 Bft) O-NO 67 11,7 C 0,0 km/h (0 Bft)
07.08.2015 06:30 15,0 C 15,3 C 80 % 1011,9 hPa 0,0 mm 0,0 km/h (0 Bft) O-NO 67 11,6 C 0,0 km/h (0 Bft)
07.08.2015 06:35 15,0 C 15,4 C 80 % 1011,9 hPa 0,0 mm 0,0 km/h (0 Bft) NW 315 11,6 C 0,0 km/h (0 Bft)
07.08.2015 06:40 15,1 C 16,5 C 80 % 1011,9 hPa 0,0 mm 0,0 km/h (0 Bft) SW 225 11,7 C 0,0 km/h (0 Bft)
07.08.2015 06:45 15,3 C 17,4 C 80 % 1011,9 hPa 0,0 mm 0,0 km/h (0 Bft) NW 315 11,9 C 0,0 km/h (0 Bft)
07.08.2015 06:50 15,5 C 18,6 C 80 % 1011,9 hPa 0,0 mm 0,0 km/h (0 Bft) O-NO 67 12,1 C 0,0 km/h (0 Bft)
07.08.2015 06:55 15,6 C 19,6 C 80 % 1011,9 hPa 0,0 mm 0,0 km/h (0 Bft) NO 45 12,2 C 0,0 km/h (0 Bft)
07.08.2015 07:00 15,8 C 21,0 C 80 % 1011,9 hPa 0,0 mm 0,0 km/h (0 Bft) S-SW 202 12,4 C 0,0 km/h (0 Bft)
07.08.2015 07:05 16,0 C 21,8 C 79 % 1011,9 hPa 0,0 mm 0,0 km/h (0 Bft) NW 315 12,4 C 0,0 km/h (0 Bft)
07.08.2015 07:10 16,4 C 22,9 C 77 % 1011,9 hPa 0,0 mm 0,0 km/h (0 Bft) NO 45 12,4 C 0,0 km/h (0 Bft)
07.08.2015 07:15 16,5 C 23,7 C 77 % 1011,8 hPa 0,0 mm 0,0 km/h (0 Bft) O 90 12,5 C 0,0 km/h (0 Bft)
07.08.2015 07:20 17,2 C 24,5 C 76 % 1011,8 hPa 0,0 mm 0,0 km/h (0 Bft) O-NO 67 12,9 C 0,0 km/h (0 Bft)
07.08.2015 07:25 17,4 C 25,0 C 75 % 1011,8 hPa 0,0 mm 0,0 km/h (0 Bft) NW 315 12,9 C 0,0 km/h (0 Bft)
07.08.2015 07:30 17,6 C 26,1 C 75 % 1011,8 hPa 0,0 mm 0,0 km/h (0 Bft) O-NO 67 13,1 C 0,0 km/h (0 Bft)
07.08.2015 07:35 17,6 C 26,7 C 75 % 1011,8 hPa 0,0 mm 0,0 km/h (0 Bft) N-NO 22 13,1 C 0,0 km/h (0 Bft)
07.08.2015 07:40 18,0 C 27,9 C 74 % 1011,8 hPa 0,0 mm 0,0 km/h (0 Bft) SO 135 13,3 C 0,0 km/h (0 Bft)
07.08.2015 07:45 19,2 C 28,6 C 74 % 1011,8 hPa 0,0 mm 0,0 km/h (0 Bft) NW 315 14,4 C 0,0 km/h (0 Bft)
07.08.2015 07:50 20,3 C 28,9 C 72 % 1011,8 hPa 0,0 mm 0,0 km/h (0 Bft) O-NO 67 15,1 C 0,0 km/h (0 Bft)
07.08.2015 07:55 20,6 C 29,3 C 70 % 1012,0 hPa 0,0 mm 0,0 km/h (0 Bft) O 90 14,9 C 0,0 km/h (0 Bft)
07.08.2015 08:00 21,1 C 29,9 C 69 % 1012,0 hPa 0,0 mm 0,0 km/h (0 Bft) O-NO 67 15,2 C 0,0 km/h (0 Bft)
07.08.2015 08:05 21,4 C 30,3 C 68 % 1012,0 hPa 0,0 mm 0,0 km/h (0 Bft) O-SO 112 15,2 C 0,0 km/h (0 Bft)
07.08.2015 08:10 21,8 C 30,9 C 67 % 1012,0 hPa 0,0 mm 0,0 km/h (0 Bft) O-SO 112 15,4 C 0,0 km/h (0 Bft)
07.08.2015 08:15 21,9 C 31,5 C 66 % 1012,5 hPa 0,0 mm 0,0 km/h (0 Bft) O-NO 67 15,3 C 0,0 km/h (0 Bft)
07.08.2015 08:20 22,2 C 31,4 C 66 % 1012,5 hPa 0,0 mm 0,0 km/h (0 Bft) NO 45 15,5 C 0,0 km/h (0 Bft)
07.08.2015 08:25 22,2 C 32,1 C 66 % 1012,5 hPa 0,0 mm 0,0 km/h (0 Bft) NO 45 15,5 C 0,0 km/h (0 Bft)
07.08.2015 08:30 23,1 C 32,5 C 65 % 1012,5 hPa 0,0 mm 0,0 km/h (0 Bft) NO 45 16,2 C 0,0 km/h (0 Bft)
07.08.2015 08:35 23,7 C 33,2 C 64 % 1012,8 hPa 0,0 mm 0,0 km/h (0 Bft) O-NO 67 16,5 C 0,0 km/h (0 Bft)
07.08.2015 08:40 23,5 C 33,4 C 62 % 1012,8 hPa 0,0 mm 0,0 km/h (0 Bft) O-NO 67 15,8 C 0,0 km/h (0 Bft)
07.08.2015 08:45 23,5 C 33,9 C 63 % 1012,8 hPa 0,0 mm 0,0 km/h (0 Bft) NO 45 16,0 C 0,0 km/h (0 Bft)
07.08.2015 08:50 24,6 C 35,2 C 62 % 1012,8 hPa 0,0 mm 0,0 km/h (0 Bft) N-NW 337 16,8 C 0,0 km/h (0 Bft)
07.08.2015 08:55 25,1 C 35,1 C 62 % 1012,8 hPa 0,0 mm 0,0 km/h (0 Bft) W 270 17,3 C 0,0 km/h (0 Bft)
07.08.2015 09:00 26,2 C 34,7 C 60 % 1012,8 hPa 0,0 mm 1,3 km/h (1 Bft) NW 315 17,8 C 6,0 km/h (2 Bft)
07.08.2015 09:05 26,3 C 34,2 C 59 % 1012,8 hPa 0,0 mm 1,6 km/h (1 Bft) O 90 17,6 C 0,0 km/h (0 Bft)
07.08.2015 09:10 26,3 C 34,4 C 59 % 1012,8 hPa 0,0 mm 1,0 km/h (0 Bft) W-NW 292 17,6 C 3,1 km/h (1 Bft)
07.08.2015 09:11 26,6 C 34,7 C 58 % 1013,3 hPa 0,0 mm 0,5 km/h (0 Bft) W-NW 292 17,6 C 3,4 km/h (1 Bft)
07.08.2015 09:14 26,6 C 34,7 C 58 % 1013,3 hPa 0,0 mm 0,5 km/h (0 Bft) W-NW 292 17,6 C 3,4 km/h (1 Bft)
07.08.2015 09:20 27,1 C 34,7 C 56 % 1013,3 hPa 0,0 mm 0,8 km/h (0 Bft) SO 135 17,5 C 3,6 km/h (1 Bft)
07.08.2015 09:25 26,4 C 35,0 C 56 % 1013,3 hPa 0,0 mm 1,0 km/h (0 Bft) S-SO 157 16,9 C 3,4 km/h (1 Bft)
07.08.2015 09:30 26,2 C 35,1 C 56 % 1013,3 hPa 0,0 mm 0,5 km/h (0 Bft) O-SO 112 16,7 C 0,0 km/h (0 Bft)
07.08.2015 09:35 26,5 C 35,3 C 56 % 1013,4 hPa 0,0 mm 0,3 km/h (0 Bft) O-SO 112 17,0 C 0,0 km/h (0 Bft)
07.08.2015 09:40 26,6 C 35,6 C 55 % 1013,4 hPa 0,0 mm 0,0 km/h (0 Bft) O-SO 112 16,8 C 0,0 km/h (0 Bft)
07.08.2015 09:45 26,6 C 35,3 C 55 % 1013,4 hPa 0,0 mm 0,0 km/h (0 Bft) SO 135 16,8 C 0,0 km/h (0 Bft)
07.08.2015 09:50 27,0 C 35,4 C 55 % 1013,4 hPa 0,0 mm 0,0 km/h (0 Bft) N-NO 22 17,2 C 0,0 km/h (0 Bft)
07.08.2015 09:55 27,4 C 35,9 C 54 % 1013,9 hPa 0,0 mm 0,3 km/h (0 Bft) NW 315 17,3 C 0,0 km/h (0 Bft)
07.08.2015 10:00 28,0 C 36,4 C 54 % 1013,9 hPa 0,0 mm 0,5 km/h (0 Bft) NW 315 17,8 C 4,4 km/h (1 Bft)
07.08.2015 10:05 28,6 C 36,4 C 52 % 1013,9 hPa 0,0 mm 1,6 km/h (1 Bft) N-NO 22 17,8 C 4,9 km/h (1 Bft)
07.08.2015 10:10 28,9 C 36,5 C 51 % 1013,9 hPa 0,0 mm 1,8 km/h (1 Bft) O-NO 67 17,7 C 0,0 km/h (0 Bft)
07.08.2015 10:15 29,2 C 36,9 C 50 % 1013,9 hPa 0,0 mm 1,0 km/h (0 Bft) N-NW 337 17,7 C 0,0 km/h (0 Bft)
07.08.2015 10:20 29,6 C 37,3 C 49 % 1013,9 hPa 0,0 mm 1,0 km/h (0 Bft) NW 315 17,7 C 6,2 km/h (2 Bft)
07.08.2015 10:25 29,7 C 37,2 C 48 % 1013,9 hPa 0,0 mm 1,6 km/h (1 Bft) NW 315 17,5 C 0,0 km/h (0 Bft)
07.08.2015 10:30 29,8 C 37,0 C 49 % 1013,9 hPa 0,0 mm 2,3 km/h (1 Bft) W-NW 292 17,9 C 7,3 km/h (2 Bft)
07.08.2015 10:35 29,5 C 36,0 C 48 % 1013,9 hPa 0,0 mm 3,4 km/h (1 Bft) W 270 17,3 C 9,1 km/h (2 Bft)
07.08.2015 10:40 29,6 C 35,1 C 48 % 1013,9 hPa 0,0 mm 5,4 km/h (1 Bft) N-NW 337 17,4 C 11,1 km/h (2 Bft)
07.08.2015 10:45 30,1 C 35,5 C 48 % 1013,9 hPa 0,0 mm 4,9 km/h (1 Bft) N-NW 337 17,9 C 10,4 km/h (2 Bft)
07.08.2015 10:50 30,1 C 35,4 C 47 % 1013,9 hPa 0,0 mm 5,7 km/h (1 Bft) W-NW 292 17,5 C 14,2 km/h (3 Bft)
07.08.2015 10:55 30,3 C 35,3 C 46 % 1014,2 hPa 0,0 mm 6,5 km/h (2 Bft) N-NO 22 17,4 C 5,4 km/h (1 Bft)
07.08.2015 11:00 30,3 C 35,8 C 46 % 1014,2 hPa 0,0 mm 5,2 km/h (1 Bft) NW 315 17,4 C 7,0 km/h (2 Bft)
07.08.2015 11:05 30,3 C 36,0 C 46 % 1014,2 hPa 0,0 mm 4,9 km/h (1 Bft) W 270 17,4 C 4,7 km/h (1 Bft)
07.08.2015 11:10 30,3 C 36,2 C 46 % 1014,2 hPa 0,0 mm 5,7 km/h (1 Bft) W 270 17,4 C 5,4 km/h (1 Bft)
07.08.2015 11:15 30,4 C 36,0 C 46 % 1014,4 hPa 0,0 mm 7,0 km/h (2 Bft) NW 315 17,5 C 17,9 km/h (3 Bft)
07.08.2015 11:20 30,6 C 35,5 C 45 % 1014,4 hPa 0,0 mm 9,1 km/h (2 Bft) SO 135 17,3 C 5,2 km/h (1 Bft)
07.08.2015 11:25 30,4 C 35,2 C 45 % 1014,4 hPa 0,0 mm 10,6 km/h (2 Bft) NW 315 17,1 C 19,7 km/h (3 Bft)
07.08.2015 11:30 29,8 C 33,5 C 46 % 1014,4 hPa 0,0 mm 10,6 km/h (2 Bft) NW 315 16,9 C 10,4 km/h (2 Bft)
07.08.2015 11:35 29,7 C 33,1 C 46 % 1014,5 hPa 0,0 mm 10,9 km/h (2 Bft) W 270 16,8 C 16,6 km/h (3 Bft)
07.08.2015 11:40 30,3 C 34,2 C 46 % 1014,5 hPa 0,0 mm 9,6 km/h (2 Bft) W 270 17,4 C 11,7 km/h (2 Bft)
07.08.2015 11:45 30,5 C 34,8 C 46 % 1014,5 hPa 0,0 mm 10,1 km/h (2 Bft) N-NW 337 17,5 C 15,3 km/h (3 Bft)
07.08.2015 11:50 29,7 C 33,6 C 46 % 1014,5 hPa 0,0 mm 10,1 km/h (2 Bft) NW 315 16,8 C 20,2 km/h (4 Bft)
07.08.2015 11:55 29,4 C 32,7 C 47 % 1015,1 hPa 0,0 mm 8,3 km/h (2 Bft) W 270 16,9 C 10,4 km/h (2 Bft)
07.08.2015 12:00 30,1 C 34,0 C 47 % 1015,1 hPa 0,0 mm 5,2 km/h (1 Bft) O 90 17,5 C 4,7 km/h (1 Bft)
07.08.2015 12:05 30,3 C 34,4 C 46 % 1015,1 hPa 0,0 mm 7,0 km/h (2 Bft) NW 315 17,4 C 7,8 km/h (2 Bft)
07.08.2015 12:10 30,4 C 34,6 C 47 % 1015,1 hPa 0,0 mm 7,5 km/h (2 Bft) W 270 17,8 C 5,4 km/h (1 Bft)
07.08.2015 12:15 30,7 C 34,8 C 47 % 1014,6 hPa 0,0 mm 7,3 km/h (2 Bft) W 270 18,1 C 8,8 km/h (2 Bft)
07.08.2015 12:20 30,5 C 34,8 C 45 % 1014,6 hPa 0,0 mm 8,8 km/h (2 Bft) W 270 17,2 C 17,3 km/h (3 Bft)
07.08.2015 12:25 30,6 C 34,7 C 45 % 1014,6 hPa 0,0 mm 8,3 km/h (2 Bft) W 270 17,3 C 3,6 km/h (1 Bft)
07.08.2015 12:30 31,0 C 35,4 C 45 % 1014,6 hPa 0,0 mm 6,2 km/h (2 Bft) SW 225 17,6 C 7,8 km/h (2 Bft)
07.08.2015 12:35 31,1 C 35,7 C 44 % 1014,7 hPa 0,0 mm 5,7 km/h (1 Bft) NW 315 17,4 C 14,2 km/h (3 Bft)
07.08.2015 12:40 31,3 C 35,8 C 44 % 1014,7 hPa 0,0 mm 6,2 km/h (2 Bft) W 270 17,6 C 2,8 km/h (1 Bft)
07.08.2015 12:45 31,6 C 36,0 C 45 % 1014,7 hPa 0,0 mm 6,0 km/h (2 Bft) N 360 18,2 C 7,3 km/h (2 Bft)
07.08.2015 12:50 31,5 C 35,7 C 42 % 1014,7 hPa 0,0 mm 8,0 km/h (2 Bft) W-NW 292 17,0 C 14,2 km/h (3 Bft)
07.08.2015 12:55 31,3 C 35,4 C 42 % 1014,6 hPa 0,0 mm 9,1 km/h (2 Bft) W 270 16,8 C 7,8 km/h (2 Bft)
07.08.2015 13:00 31,2 C 35,2 C 42 % 1014,6 hPa 0,0 mm 9,1 km/h (2 Bft) W-NW 292 16,7 C 20,7 km/h (4 Bft)
07.08.2015 13:05 31,3 C 35,2 C 42 % 1014,6 hPa 0,0 mm 9,1 km/h (2 Bft) W 270 16,8 C 8,0 km/h (2 Bft)
07.08.2015 13:10 31,2 C 35,1 C 41 % 1014,6 hPa 0,0 mm 9,6 km/h (2 Bft) S-SW 202 16,4 C 21,0 km/h (4 Bft)
07.08.2015 13:15 31,5 C 35,2 C 41 % 1014,4 hPa 0,0 mm 9,3 km/h (2 Bft) S-SW 202 16,6 C 16,1 km/h (3 Bft)
07.08.2015 13:20 31,3 C 35,1 C 41 % 1014,4 hPa 0,0 mm 9,3 km/h (2 Bft) O 90 16,4 C 9,1 km/h (2 Bft)
07.08.2015 13:25 31,2 C 34,6 C 41 % 1014,4 hPa 0,0 mm 11,1 km/h (2 Bft) W 270 16,4 C 12,4 km/h (3 Bft)
07.08.2015 13:30 31,4 C 33,8 C 40 % 1014,4 hPa 0,0 mm 12,2 km/h (2 Bft) O-NO 67 16,1 C 25,9 km/h (4 Bft)
07.08.2015 13:35 31,3 C 33,4 C 40 % 1014,5 hPa 0,0 mm 11,7 km/h (2 Bft) S 180 16,1 C 10,4 km/h (2 Bft)
07.08.2015 13:40 31,5 C 33,3 C 39 % 1014,5 hPa 0,0 mm 8,8 km/h (2 Bft) NW 315 15,8 C 10,1 km/h (2 Bft)
07.08.2015 13:45 31,7 C 33,5 C 40 % 1014,5 hPa 0,0 mm 7,3 km/h (2 Bft) O-NO 67 16,4 C 7,0 km/h (2 Bft)
07.08.2015 13:50 32,1 C 34,3 C 39 % 1014,5 hPa 0,0 mm 9,1 km/h (2 Bft) S-SW 202 16,4 C 15,5 km/h (3 Bft)
07.08.2015 13:55 32,4 C 34,7 C 41 % 1014,4 hPa 0,0 mm 9,1 km/h (2 Bft) W 270 17,4 C 12,4 km/h (3 Bft)
07.08.2015 14:00 32,4 C 35,8 C 39 % 1014,4 hPa 0,0 mm 7,3 km/h (2 Bft) SW 225 16,6 C 6,7 km/h (2 Bft)
07.08.2015 14:05 32,3 C 36,1 C 38 % 1014,4 hPa 0,0 mm 6,5 km/h (2 Bft) W 270 16,1 C 10,1 km/h (2 Bft)
07.08.2015 14:10 32,4 C 36,3 C 39 % 1014,4 hPa 0,0 mm 7,3 km/h (2 Bft) N-NW 337 16,6 C 7,8 km/h (2 Bft)
07.08.2015 14:15 32,5 C 36,3 C 39 % 1014,2 hPa 0,0 mm 8,5 km/h (2 Bft) W 270 16,7 C 12,2 km/h (2 Bft)
07.08.2015 14:20 32,4 C 35,9 C 38 % 1014,2 hPa 0,0 mm 10,6 km/h (2 Bft) W 270 16,2 C 18,4 km/h (3 Bft)
07.08.2015 14:25 32,4 C 35,9 C 39 % 1014,2 hPa 0,0 mm 10,9 km/h (2 Bft) W 270 16,6 C 8,8 km/h (2 Bft)
07.08.2015 14:30 32,7 C 36,0 C 39 % 1014,2 hPa 0,0 mm 8,5 km/h (2 Bft) W-NW 292 16,9 C 8,3 km/h (2 Bft)
07.08.2015 14:35 32,8 C 36,6 C 38 % 1014,0 hPa 0,0 mm 6,7 km/h (2 Bft) W 270 16,6 C 8,8 km/h (2 Bft)
07.08.2015 14:40 32,8 C 37,5 C 38 % 1014,0 hPa 0,0 mm 4,1 km/h (1 Bft) W 270 16,6 C 2,8 km/h (1 Bft)
07.08.2015 14:45 32,8 C 38,0 C 38 % 1014,0 hPa 0,0 mm 4,1 km/h (1 Bft) NW 315 16,6 C 9,8 km/h (2 Bft)
07.08.2015 14:50 33,0 C 37,8 C 37 % 1014,0 hPa 0,0 mm 5,7 km/h (1 Bft) N-NW 337 16,3 C 7,3 km/h (2 Bft)
07.08.2015 14:55 33,1 C 37,6 C 37 % 1014,0 hPa 0,0 mm 7,5 km/h (2 Bft) W 270 16,4 C 11,4 km/h (2 Bft)
07.08.2015 15:00 33,1 C 37,5 C 37 % 1014,0 hPa 0,0 mm 7,0 km/h (2 Bft) NW 315 16,4 C 5,2 km/h (1 Bft)
07.08.2015 15:05 33,1 C 37,8 C 38 % 1014,0 hPa 0,0 mm 4,7 km/h (1 Bft) W-NW 292 16,8 C 4,1 km/h (1 Bft)
07.08.2015 15:10 33,1 C 37,5 C 36 % 1014,0 hPa 0,0 mm 4,9 km/h (1 Bft) N-NW 337 16,0 C 5,2 km/h (1 Bft)
07.08.2015 15:11 33,0 C 37,3 C 36 % 1013,7 hPa 0,0 mm 7,5 km/h (2 Bft) NW 315 15,9 C 12,4 km/h (3 Bft)
07.08.2015 15:15 33,0 C 37,3 C 36 % 1013,7 hPa 0,0 mm 7,5 km/h (2 Bft) NW 315 15,9 C 12,4 km/h (3 Bft)
07.08.2015 15:20 32,5 C 35,9 C 37 % 1013,7 hPa 0,0 mm 7,3 km/h (2 Bft) N-NO 22 15,9 C 9,6 km/h (2 Bft)
07.08.2015 15:25 32,5 C 36,0 C 38 % 1013,7 hPa 0,0 mm 5,2 km/h (1 Bft) W 270 16,3 C 0,0 km/h (0 Bft)
07.08.2015 15:30 33,1 C 36,8 C 36 % 1013,7 hPa 0,0 mm 6,2 km/h (2 Bft) NW 315 16,0 C 12,2 km/h (2 Bft)
07.08.2015 15:35 33,0 C 36,9 C 35 % 1013,6 hPa 0,0 mm 8,0 km/h (2 Bft) W-SW 247 15,5 C 4,4 km/h (1 Bft)
07.08.2015 15:40 33,2 C 37,5 C 36 % 1013,6 hPa 0,0 mm 6,5 km/h (2 Bft) W 270 16,1 C 10,6 km/h (2 Bft)
07.08.2015 15:45 33,2 C 37,8 C 36 % 1013,6 hPa 0,0 mm 5,4 km/h (1 Bft) W-SW 247 16,1 C 6,5 km/h (2 Bft)
07.08.2015 15:50 33,3 C 38,1 C 36 % 1013,6 hPa 0,0 mm 6,0 km/h (2 Bft) NW 315 16,2 C 7,0 km/h (2 Bft)
07.08.2015 15:55 33,3 C 38,3 C 35 % 1013,4 hPa 0,0 mm 6,0 km/h (2 Bft) NW 315 15,7 C 11,1 km/h (2 Bft)
07.08.2015 16:00 33,0 C 38,1 C 36 % 1013,4 hPa 0,0 mm 5,2 km/h (1 Bft) W-SW 247 15,9 C 0,0 km/h (0 Bft)
07.08.2015 16:05 33,2 C 38,4 C 35 % 1013,4 hPa 0,0 mm 6,2 km/h (2 Bft) W 270 15,6 C 6,5 km/h (2 Bft)
07.08.2015 16:10 33,0 C 37,9 C 36 % 1013,4 hPa 0,0 mm 7,3 km/h (2 Bft) NW 315 15,9 C 8,3 km/h (2 Bft)
07.08.2015 16:15 32,8 C 38,0 C 36 % 1013,4 hPa 0,0 mm 6,7 km/h (2 Bft) W 270 15,7 C 11,1 km/h (2 Bft)
07.08.2015 16:20 32,4 C 38,6 C 36 % 1013,4 hPa 0,0 mm 6,2 km/h (2 Bft) W-SW 247 15,4 C 10,9 km/h (2 Bft)
07.08.2015 16:25 32,2 C 37,9 C 37 % 1013,4 hPa 0,0 mm 5,2 km/h (1 Bft) W-NW 292 15,6 C 5,2 km/h (1 Bft)
07.08.2015 16:30 32,0 C 37,0 C 37 % 1013,4 hPa 0,0 mm 4,9 km/h (1 Bft) W-NW 292 15,5 C 5,2 km/h (1 Bft)
07.08.2015 16:35 31,8 C 35,7 C 37 % 1013,4 hPa 0,0 mm 4,1 km/h (1 Bft) W 270 15,3 C 6,0 km/h (2 Bft)
07.08.2015 16:40 31,6 C 35,1 C 38 % 1013,4 hPa 0,0 mm 5,4 km/h (1 Bft) N 360 15,5 C 6,0 km/h (2 Bft)
07.08.2015 16:45 31,4 C 34,6 C 38 % 1013,4 hPa 0,0 mm 6,2 km/h (2 Bft) NW 315 15,3 C 0,0 km/h (0 Bft)
07.08.2015 16:50 31,5 C 34,7 C 38 % 1013,4 hPa 0,0 mm 6,0 km/h (2 Bft) N-NO 22 15,4 C 10,6 km/h (2 Bft)
07.08.2015 16:55 31,3 C 34,0 C 38 % 1013,4 hPa 0,0 mm 6,2 km/h (2 Bft) N-NO 22 15,3 C 7,0 km/h (2 Bft)
07.08.2015 17:00 30,7 C 32,7 C 38 % 1013,4 hPa 0,0 mm 6,2 km/h (2 Bft) O-NO 67 14,7 C 2,8 km/h (1 Bft)
07.08.2015 17:05 30,3 C 32,2 C 39 % 1013,4 hPa 0,0 mm 3,6 km/h (1 Bft) SO 135 14,8 C 2,8 km/h (1 Bft)
07.08.2015 17:10 29,9 C 31,6 C 42 % 1013,4 hPa 0,0 mm 0,5 km/h (0 Bft) NW 315 15,6 C 0,0 km/h (0 Bft)
07.08.2015 17:15 30,0 C 31,9 C 42 % 1013,4 hPa 0,0 mm 0,0 km/h (0 Bft) W-NW 292 15,7 C 0,0 km/h (0 Bft)
07.08.2015 17:20 30,1 C 32,0 C 43 % 1013,4 hPa 0,0 mm 1,3 km/h (1 Bft) SW 225 16,1 C 0,0 km/h (0 Bft)
07.08.2015 17:25 30,1 C 32,2 C 43 % 1013,4 hPa 0,0 mm 1,8 km/h (1 Bft) N-NW 337 16,1 C 5,4 km/h (1 Bft)
07.08.2015 17:30 30,2 C 32,3 C 42 % 1013,4 hPa 0,0 mm 0,8 km/h (0 Bft) N 360 15,8 C 0,0 km/h (0 Bft)
07.08.2015 17:35 30,4 C 32,7 C 40 % 1013,4 hPa 0,0 mm 2,1 km/h (1 Bft) O-NO 67 15,3 C 6,0 km/h (2 Bft)
07.08.2015 17:40 30,8 C 33,2 C 39 % 1013,4 hPa 0,0 mm 3,9 km/h (1 Bft) NO 45 15,2 C 3,4 km/h (1 Bft)
07.08.2015 17:45 31,0 C 33,5 C 39 % 1013,4 hPa 0,0 mm 4,1 km/h (1 Bft) O-SO 112 15,4 C 2,6 km/h (1 Bft)
07.08.2015 17:50 31,0 C 33,8 C 40 % 1013,4 hPa 0,0 mm 2,8 km/h (1 Bft) NO 45 15,8 C 13,7 km/h (3 Bft)
07.08.2015 17:55 30,8 C 33,6 C 42 % 1013,6 hPa 0,0 mm 4,1 km/h (1 Bft) N-NO 22 16,4 C 8,5 km/h (2 Bft)
07.08.2015 18:00 29,8 C 32,7 C 45 % 1013,6 hPa 0,0 mm 5,2 km/h (1 Bft) NW 315 16,6 C 7,3 km/h (2 Bft)
07.08.2015 18:05 29,4 C 32,3 C 47 % 1013,6 hPa 0,0 mm 4,1 km/h (1 Bft) O-SO 112 16,9 C 0,0 km/h (0 Bft)
07.08.2015 18:10 28,6 C 31,5 C 48 % 1013,6 hPa 0,0 mm 1,8 km/h (1 Bft) N-NO 22 16,5 C 0,0 km/h (0 Bft)
07.08.2015 18:15 28,2 C 30,9 C 48 % 1013,4 hPa 0,0 mm 0,3 km/h (0 Bft) W-NW 292 16,1 C 0,0 km/h (0 Bft)
07.08.2015 18:20 27,8 C 30,1 C 49 % 1013,4 hPa 0,0 mm 0,0 km/h (0 Bft) W-SW 247 16,1 C 0,0 km/h (0 Bft)
07.08.2015 18:25 27,3 C 29,5 C 50 % 1013,4 hPa 0,0 mm 0,5 km/h (0 Bft) SW 225 15,9 C 0,0 km/h (0 Bft)
07.08.2015 18:30 26,6 C 28,7 C 50 % 1013,4 hPa 0,0 mm 1,6 km/h (1 Bft) S-SO 157 15,3 C 0,0 km/h (0 Bft)
07.08.2015 18:35 26,3 C 28,3 C 50 % 1013,2 hPa 0,0 mm 1,0 km/h (0 Bft) SW 225 15,0 C 0,0 km/h (0 Bft)
07.08.2015 18:40 26,3 C 28,2 C 51 % 1013,2 hPa 0,0 mm 0,5 km/h (0 Bft) O-SO 112 15,3 C 0,0 km/h (0 Bft)
07.08.2015 18:45 26,5 C 28,2 C 51 % 1013,2 hPa 0,0 mm 0,5 km/h (0 Bft) O-NO 67 15,5 C 0,0 km/h (0 Bft)
07.08.2015 18:50 26,4 C 28,1 C 52 % 1013,2 hPa 0,0 mm 0,3 km/h (0 Bft) SO 135 15,7 C 0,0 km/h (0 Bft)
07.08.2015 18:55 26,3 C 28,1 C 52 % 1013,0 hPa 0,0 mm 0,0 km/h (0 Bft) O-SO 112 15,6 C 0,0 km/h (0 Bft)
07.08.2015 19:00 25,8 C 27,7 C 55 % 1013,0 hPa 0,0 mm 0,0 km/h (0 Bft) N-NO 22 16,1 C 0,0 km/h (0 Bft)
07.08.2015 19:05 25,5 C 27,3 C 55 % 1013,0 hPa 0,0 mm 0,0 km/h (0 Bft) NW 315 15,8 C 0,0 km/h (0 Bft)
07.08.2015 19:10 25,1 C 26,8 C 56 % 1013,0 hPa 0,0 mm 0,0 km/h (0 Bft) S-SW 202 15,7 C 0,0 km/h (0 Bft)
07.08.2015 19:15 24,8 C 26,3 C 56 % 1013,0 hPa 0,0 mm 0,0 km/h (0 Bft) W-SW 247 15,4 C 0,0 km/h (0 Bft)
07.08.2015 19:20 24,7 C 26,1 C 56 % 1013,0 hPa 0,0 mm 0,0 km/h (0 Bft) NW 315 15,3 C 0,0 km/h (0 Bft)
07.08.2015 19:25 24,8 C 26,1 C 56 % 1013,0 hPa 0,0 mm 0,0 km/h (0 Bft) SW 225 15,4 C 3,1 km/h (1 Bft)
07.08.2015 19:30 24,8 C 26,6 C 57 % 1013,0 hPa 0,0 mm 0,3 km/h (0 Bft) SW 225 15,7 C 0,0 km/h (0 Bft)
07.08.2015 19:35 24,6 C 26,5 C 57 % 1012,9 hPa 0,0 mm 0,5 km/h (0 Bft) W-NW 292 15,5 C 3,1 km/h (1 Bft)
07.08.2015 19:40 24,6 C 26,1 C 57 % 1012,9 hPa 0,0 mm 0,5 km/h (0 Bft) W 270 15,5 C 3,4 km/h (1 Bft)
07.08.2015 19:45 24,7 C 26,5 C 58 % 1012,9 hPa 0,0 mm 0,5 km/h (0 Bft) W 270 15,9 C 0,0 km/h (0 Bft)
07.08.2015 19:50 24,8 C 27,3 C 58 % 1012,9 hPa 0,0 mm 0,5 km/h (0 Bft) S 180 16,0 C 2,8 km/h (1 Bft)
07.08.2015 19:55 25,0 C 27,7 C 57 % 1012,9 hPa 0,0 mm 1,3 km/h (1 Bft) S-SW 202 15,9 C 3,9 km/h (1 Bft)
07.08.2015 20:00 25,0 C 27,9 C 57 % 1012,9 hPa 0,0 mm 1,3 km/h (1 Bft) NO 45 15,9 C 0,0 km/h (0 Bft)
07.08.2015 20:05 25,0 C 28,0 C 57 % 1012,9 hPa 0,0 mm 0,3 km/h (0 Bft) S-SO 157 15,9 C 0,0 km/h (0 Bft)
07.08.2015 20:10 24,8 C 28,1 C 58 % 1012,9 hPa 0,0 mm 0,0 km/h (0 Bft) S-SO 157 16,0 C 0,0 km/h (0 Bft)
07.08.2015 20:15 24,6 C 27,8 C 58 % 1012,9 hPa 0,0 mm 0,0 km/h (0 Bft) N-NO 22 15,8 C 0,0 km/h (0 Bft)
07.08.2015 20:20 24,2 C 27,3 C 58 % 1012,9 hPa 0,0 mm 0,0 km/h (0 Bft) W-NW 292 15,4 C 0,0 km/h (0 Bft)
07.08.2015 20:25 24,0 C 26,8 C 58 % 1012,9 hPa 0,0 mm 0,0 km/h (0 Bft) N-NO 22 15,2 C 0,0 km/h (0 Bft)
07.08.2015 20:30 23,6 C 26,0 C 59 % 1012,9 hPa 0,0 mm 0,0 km/h (0 Bft) O-SO 112 15,1 C 0,0 km/h (0 Bft)
07.08.2015 20:35 23,4 C 25,4 C 59 % 1012,9 hPa 0,0 mm 0,0 km/h (0 Bft) SW 225 14,9 C 0,0 km/h (0 Bft)
07.08.2015 20:40 22,9 C 24,4 C 59 % 1012,9 hPa 0,0 mm 0,0 km/h (0 Bft) N-NO 22 14,5 C 0,0 km/h (0 Bft)
07.08.2015 20:45 22,8 C 23,8 C 59 % 1012,9 hPa 0,0 mm 0,0 km/h (0 Bft) S 180 14,4 C 0,0 km/h (0 Bft)
07.08.2015 20:50 22,6 C 23,1 C 59 % 1012,9 hPa 0,0 mm 0,0 km/h (0 Bft) W-SW 247 14,2 C 0,0 km/h (0 Bft)
07.08.2015 20:55 22,5 C 22,8 C 61 % 1013,1 hPa 0,0 mm 0,0 km/h (0 Bft) N 360 14,6 C 0,0 km/h (0 Bft)
07.08.2015 21:00 22,2 C 22,3 C 61 % 1013,1 hPa 0,0 mm 0,0 km/h (0 Bft) W-NW 292 14,3 C 0,0 km/h (0 Bft)
07.08.2015 21:05 22,1 C 22,1 C 61 % 1013,1 hPa 0,0 mm 0,0 km/h (0 Bft) O 90 14,2 C 0,0 km/h (0 Bft)
07.08.2015 21:10 22,0 C 21,9 C 62 % 1013,1 hPa 0,0 mm 0,0 km/h (0 Bft) O-NO 67 14,4 C 0,0 km/h (0 Bft)
07.08.2015 21:11 21,9 C 21,8 C 62 % 1013,0 hPa 0,0 mm 0,0 km/h (0 Bft) S 180 14,3 C 0,0 km/h (0 Bft)
07.08.2015 21:16 21,8 C 21,7 C 63 % 1013,0 hPa 0,0 mm 0,0 km/h (0 Bft) W-SW 247 14,4 C 0,0 km/h (0 Bft)
07.08.2015 21:20 21,8 C 21,7 C 63 % 1013,0 hPa 0,0 mm 0,0 km/h (0 Bft) W-SW 247 14,4 C 0,0 km/h (0 Bft)
07.08.2015 21:25 21,8 C 21,7 C 63 % 1013,0 hPa 0,0 mm 0,0 km/h (0 Bft) S 180 14,4 C 0,0 km/h (0 Bft)
07.08.2015 21:30 21,6 C 21,5 C 63 % 1013,0 hPa 0,0 mm 0,0 km/h (0 Bft) N-NW 337 14,2 C 0,0 km/h (0 Bft)
07.08.2015 21:35 21,6 C 21,5 C 64 % 1013,3 hPa 0,0 mm 0,0 km/h (0 Bft) NO 45 14,5 C 0,0 km/h (0 Bft)
07.08.2015 21:40 21,3 C 21,3 C 64 % 1013,3 hPa 0,0 mm 0,0 km/h (0 Bft) N-NW 337 14,2 C 0,0 km/h (0 Bft)
07.08.2015 21:45 21,3 C 21,2 C 64 % 1013,3 hPa 0,0 mm 0,0 km/h (0 Bft) NO 45 14,2 C 0,0 km/h (0 Bft)
07.08.2015 21:50 21,0 C 21,0 C 65 % 1013,3 hPa 0,0 mm 0,0 km/h (0 Bft) O-NO 67 14,2 C 0,0 km/h (0 Bft)
07.08.2015 21:55 20,8 C 20,7 C 66 % 1012,9 hPa 0,0 mm 0,0 km/h (0 Bft) NO 45 14,2 C 0,0 km/h (0 Bft)
07.08.2015 22:00 20,6 C 20,6 C 66 % 1012,9 hPa 0,0 mm 0,0 km/h (0 Bft) N-NO 22 14,0 C 0,0 km/h (0 Bft)
07.08.2015 22:05 20,5 C 20,4 C 67 % 1012,9 hPa 0,0 mm 0,0 km/h (0 Bft) N-NW 337 14,2 C 0,0 km/h (0 Bft)
07.08.2015 22:10 20,8 C 20,6 C 68 % 1012,9 hPa 0,0 mm 0,0 km/h (0 Bft) O-SO 112 14,7 C 0,0 km/h (0 Bft)
07.08.2015 22:15 21,3 C 21,0 C 67 % 1013,0 hPa 0,0 mm 0,0 km/h (0 Bft) O-NO 67 14,9 C 0,0 km/h (0 Bft)
07.08.2015 22:20 20,7 C 20,6 C 67 % 1013,0 hPa 0,0 mm 0,0 km/h (0 Bft) N-NO 22 14,3 C 0,0 km/h (0 Bft)
07.08.2015 22:25 20,6 C 20,5 C 68 % 1013,0 hPa 0,0 mm 0,0 km/h (0 Bft) O-NO 67 14,5 C 0,0 km/h (0 Bft)
07.08.2015 22:30 20,3 C 20,2 C 68 % 1013,0 hPa 0,0 mm 0,0 km/h (0 Bft) N-NO 22 14,2 C 0,0 km/h (0 Bft)
07.08.2015 22:35 20,2 C 20,1 C 69 % 1013,1 hPa 0,0 mm 0,0 km/h (0 Bft) O-NO 67 14,3 C 0,0 km/h (0 Bft)
07.08.2015 22:40 19,8 C 19,7 C 69 % 1013,1 hPa 0,0 mm 0,0 km/h (0 Bft) O-NO 67 13,9 C 0,0 km/h (0 Bft)
07.08.2015 22:45 19,7 C 19,6 C 70 % 1013,1 hPa 0,0 mm 0,0 km/h (0 Bft) O-NO 67 14,1 C 0,0 km/h (0 Bft)
07.08.2015 22:50 19,6 C 19,5 C 70 % 1013,1 hPa 0,0 mm 0,0 km/h (0 Bft) O-NO 67 14,0 C 0,0 km/h (0 Bft)
07.08.2015 22:55 19,6 C 19,5 C 70 % 1012,9 hPa 0,0 mm 0,0 km/h (0 Bft) O-NO 67 14,0 C 0,0 km/h (0 Bft)
07.08.2015 23:00 19,7 C 19,6 C 70 % 1012,9 hPa 0,0 mm 0,0 km/h (0 Bft) NW 315 14,1 C 0,0 km/h (0 Bft)
07.08.2015 23:05 19,9 C 19,7 C 70 % 1012,9 hPa 0,0 mm 0,0 km/h (0 Bft) NW 315 14,3 C 0,0 km/h (0 Bft)
07.08.2015 23:10 19,9 C 19,7 C 70 % 1012,9 hPa 0,0 mm 0,0 km/h (0 Bft) NW 315 14,3 C 0,0 km/h (0 Bft)
07.08.2015 23:15 19,7 C 19,6 C 70 % 1012,9 hPa 0,0 mm 0,0 km/h (0 Bft) NW 315 14,1 C 0,0 km/h (0 Bft)
07.08.2015 23:20 19,4 C 19,3 C 70 % 1012,9 hPa 0,0 mm 0,0 km/h (0 Bft) N-NW 337 13,8 C 0,0 km/h (0 Bft)
07.08.2015 23:25 19,2 C 19,2 C 71 % 1012,9 hPa 0,0 mm 0,0 km/h (0 Bft) N-NO 22 13,8 C 0,0 km/h (0 Bft)
07.08.2015 23:30 18,9 C 18,9 C 72 % 1012,9 hPa 0,0 mm 0,0 km/h (0 Bft) O-NO 67 13,7 C 0,0 km/h (0 Bft)
07.08.2015 23:35 18,9 C 18,8 C 73 % 1013,1 hPa 0,0 mm 0,0 km/h (0 Bft) SO 135 13,9 C 0,0 km/h (0 Bft)
07.08.2015 23:40 18,8 C 18,7 C 72 % 1013,1 hPa 0,0 mm 0,0 km/h (0 Bft) O-SO 112 13,6 C 0,0 km/h (0 Bft)
07.08.2015 23:45 19,1 C 18,9 C 73 % 1013,1 hPa 0,0 mm 0,0 km/h (0 Bft) W-SW 247 14,1 C 0,0 km/h (0 Bft)
07.08.2015 23:50 19,0 C 18,8 C 72 % 1013,1 hPa 0,0 mm 0,0 km/h (0 Bft) N-NO 22 13,8 C 0,0 km/h (0 Bft)
07.08.2015 23:55 18,8 C 18,7 C 72 % 1012,8 hPa 0,0 mm 0,0 km/h (0 Bft) N-NW 337 13,6 C 0,0 km/h (0 Bft)
_ Min-Zeit 05:50 04:00 16:05 07:50 - 23:55 - - 03:45 23:55
Minimum _ 14,6 C 14,4 C 35 % 1011,8 hPa - 0,0 km/h (0 Bft) - - 10,8 C 0,0 km/h (0 Bft)
_ Max-Zeit 15:55 16:20 06:20 12:10 23:55 13:30 - - 12:45 13:30
Maximum _ 33,3 C 38,6 C 81 % 1015,1 hPa 0,0 mm 12,2 km/h
O-NO (2 Bft)
- - 18,2 C 25,9 km/h
O-NO (4 Bft)
Durchschnitt _ 23,5 C 26,2 C 60 % 1013,2 hPa #0,0 mm 2,2 km/h (1 Bft) W - 14,5 C 3,0 km/h (1 Bft)